This is the latest recevied weather packets stored in our database for station/object KB8SSH. If no packets are shown the sender has not sent any weather packets the latest 10 day(s).
| Time | Temp. | Humidity | Pressure | Rain* | Wind** | Luminosity | Snow |
|---|---|---|---|---|---|---|---|
| 1777567065 | 11.11° C | 73% | 1049.4 hPa | 0 mm | - | 261 W/m² | - |
| 1777566763 | 10.56° C | 74% | 1049.4 hPa | 0 mm | - | 327 W/m² | - |
| 1777566461 | 10° C | 75% | 1049.4 hPa | 0 mm | - | 231 W/m² | - |
| 1777566158 | 10° C | 76% | 1049.8 hPa | 0 mm | - | 199 W/m² | - |
| 1777565853 | 10° C | 76% | 1049.4 hPa | 0 mm | - | 251 W/m² | - |
| 1777565550 | 10° C | 76% | 1049.1 hPa | 0 mm | - | 203 W/m² | - |
| 1777565247 | 10° C | 76% | 1049.1 hPa | 0 mm | - | 242 W/m² | - |
| 1777564943 | 10° C | 78% | 1049.1 hPa | 0 mm | - | 248 W/m² | - |
| 1777564639 | 9.44° C | 80% | 1049.1 hPa | 0 mm | - | 217 W/m² | - |
| 1777564334 | 9.44° C | 81% | 1049.4 hPa | 0 mm | - | 192 W/m² | - |
| 1777564031 | 8.89° C | 83% | 1049.4 hPa | 0 mm | - | 155 W/m² | - |
| 1777563727 | 8.89° C | 82% | 1049.4 hPa | 0 mm | - | 104 W/m² | - |
| 1777563423 | 8.89° C | 81% | 1049.4 hPa | 0 mm | - | 107 W/m² | - |
| 1777563117 | 8.89° C | 83% | 1049.1 hPa | 0 mm | - | 182 W/m² | - |
| 1777562812 | 8.89° C | 85% | 1049.4 hPa | 0 mm | - | 276 W/m² | - |
| 1777562505 | 8.33° C | 86% | 1049.4 hPa | 0 mm | - | 134 W/m² | - |
| 1777562203 | 8.33° C | 85% | 1049.1 hPa | 0 mm | - | 65 W/m² | - |
| 1777561901 | 8.33° C | 85% | 1049.4 hPa | 0 mm | - | 45 W/m² | - |
| 1777561597 | 8.33° C | 85% | 1049.1 hPa | 0 mm | - | 68 W/m² | - |
| 1777561293 | 8.33° C | 84% | 1049.1 hPa | 0 mm | - | 79 W/m² | - |
| 1777560993 | 8.33° C | 85% | 1049.1 hPa | 0 mm | - | 69 W/m² | - |
| 1777560688 | 8.89° C | 85% | 1048.8 hPa | 0 mm | - | 67 W/m² | - |
| 1777560386 | 8.89° C | 87% | 1049.1 hPa | 0 mm | - | 95 W/m² | - |
| 1777560084 | 8.89° C | 87% | 1048.8 hPa | 0 mm | - | 167 W/m² | - |
| 1777559780 | 8.33° C | 87% | 1049.1 hPa | 0 mm | - | 248 W/m² | - |
* Rain latest hour (hover to see other rain measurements)
** Current wind speed in m/s (hover to see current wind gust speed)